sat.trackr.live / text

‹ back to catalog

STARLINK-3153

NORAD 49431 · 2021-104Z

PAYLOAD ACTIVE UNKNOWN

§ Identity

Operator
Country
US
Launch date
2021-11-13
Launch site
AFETR
Launch vehicle
Mass (kg)
RCS (m²)

Purposes: comms

External: N2YO · Heavens-Above · Gunter

§ Orbital elements

Epoch: 2026-09-20T01:24:13.914432Z

Period
93.85 min
Inclination
53.1600°
Eccentricity
0.0001264
Mean motion
15.34382749 rev/d
Perigee alt
461.9 km
Apogee alt
463.6 km
Semi-major
6,840.9 km
B*
-2.6923e-5
RAAN
63.4424°
Arg perigee
70.0881°
Mean anomaly
290.0257°
Rev number
26,815

§ Raw data

STARLINK-31531 49431U 21104Z   26263.05849438 -.00001285  00000+0 -26923-4 0  99922 49431  53.1600  63.4424 0001264  70.0881 290.0257 15.34382749268151

JSON: /api/v1/satellites/49431 · /tle

For live sub-satellite position, see the globe view (requires WebGL).

§ Visibility from observer

Set your observer location to see the next 7 days of passes ≥ 10°. The values pass through the URL so the page stays shareable.

No JS? Fill the form by hand. The geolocation button needs JavaScript.